Printer-friendly version
Follow the MPC on Twitter Follow the MPC on Facebook The MPC blog
Minor Planet Center

MPEC 2010-E35 : 2009 XR2

The following Minor Planet Electronic Circular may be linked-to from your own Web pages, but must not otherwise be redistributed electronically.

A form allowing access to any MPEC is at the bottom of this page.


Read MPEC 2010-E34 Read MPEC 2010-E36


M.P.E.C. 2010-E35                                Issued 2010 Mar.  9, 20:37 UT

     The Minor Planet Electronic Circulars contain information on unusual
         minor planets and routine data on comets.  They are published
   on behalf of Commission 20 of the International Astronomical Union by the
          Minor Planet Center, Smithsonian Astrophysical Observatory,
                          Cambridge, MA 02138, U.S.A.

             Prepared using the Tamkin Foundation Computer Network

                              MPC@CFA.HARVARD.EDU
       URL http://www.minorplanetcenter.org/iau/mpc.html  ISSN 1523-6714

                                   2009 XR2

                           Revision to MPEC 2009-X52

Additional Observations:
     K09X02R  C2000 12 02.65703 10 27 43.96 -02 48 02.1          19.3 R EE035608
     K09X02R  C2000 12 30.57633 10 30 15.97 -24 39 56.5          19.1 R EE035608
     K09X02R  C2000 12 30.58670 10 30 15.50 -24 40 23.0          19.2 R EE035608
     K09X02R  C2000 12 30.59698 10 30 15.01 -24 40 49.6          19.8 R EE035608

Observer details:
608 Haleakala-NEAT/MSSS.  Observers R. Bambery, E. Helin, S. Pravdo, M. Hicks,
    K. Lawrence, P. Kervin.  Measurer R. Matson.  1.2-m reflector + CCD.

First and last observations above in comparison with prediction:
Residuals in seconds of arc, reference and Delta-T
001202 608 45.4- 78.8+    001230 608 88.6- 36.3+    MPO172390   -0.00021 day

Orbital elements:
2009 XR2                                                 Earth MOID = 0.1524 AU
Epoch 2010 Jan. 4.0 TT = JDT 2455200.5                  MPC
M  33.54574              (2000.0)            P               Q
n   0.54128608     Peri.  130.99260     +0.65624517     -0.60612314
a   1.4911390      Node   271.54870     +0.48335540     +0.79503032
e   0.2889747      Incl.   26.71549     +0.57940473     +0.02327075
P   1.82           H   19.0           G   0.15           U   2
Residuals in seconds of arc
001202 608  0.2+  0.2+    091217 716  0.2+  0.9-    100103 H21  0.0   0.0
001230 608  0.2+  0.2+    091217 716 (0.6+  2.5+)   100104 H21  0.3+  0.7+
001230 608  0.2+  0.4+    091218 900  0.1+  0.1-    100104 H21  0.2+  0.2-
001230 608  0.0   0.3+    091218 900  0.1+  0.2-    100104 H21  0.2+  0.0
091213 703  0.2+  0.1-    091218 J16  0.4-  0.2-    100104 H21  0.3+  0.1+
091213 703  0.3+  0.8-    091218 J16  0.2+  0.2-    100104 448  0.7+  0.0
091213 703  0.0   0.1+    091219 932  0.1+  0.1+    100104 448  0.5+  0.2-
091213 703  0.3+  0.2+    091219 B74  0.0   1.3-    100104 448  0.3+  0.3+
091213 703  0.0   0.1+    091220 B74  0.1-  1.2-    100104 448  1.0+  0.6-
091213 703  0.3-  0.2+    091220 J51  0.1+  0.2-    100106 H21  0.1-  0.1+
091213 703  0.1-  0.1+    091220 J51  0.1+  0.3-    100106 H21  0.1-  0.1+
091213 703  0.6-  0.4+    091220 B74  0.5-  0.8-    100106 H21  0.1-  0.2+
091213 932  0.0   0.2+    091220 J51  0.2+  0.3-    100106 H21  0.1-  0.3+
091213 932  0.0   0.2+    091221 932  0.1+  0.3-    100106 H21  0.1+  0.1+
091213 932  0.1+  0.3+    091221 932  0.2+  0.1-    100106 H21  0.1-  0.2+
091213 932  0.2+  0.0     091221 932  0.1+  0.4-    100106 H21  0.1-  0.2+
091213 703  0.3-  0.1+    091221 932  0.2+  0.2-    100107 379  0.3-  0.7+
091213 703  1.0-  0.1-    091221 071  1.1+  1.6+    100107 379  0.3-  0.4+
091213 703  0.2-  0.4-    091221 071 (1.9+  4.1+)   100107 379  0.1+  0.2+
091213 703  0.3-  0.1+    091221 071 (2.1+  7.8+)   100107 379  0.1-  0.8+
091213 926  0.2+  0.2+    091221 071 (0.9+  2.1+)   100107 379  0.2-  0.2+
091213 926  0.3+  0.1-    091223 379  0.2-  0.0     100108 379  0.1-  0.1+
091213 926  0.3+  0.2+    091223 379  0.1-  0.0     100108 379  0.5-  0.1+
091213 H06  0.3+  0.5+    091223 379  0.1+  0.4-    100108 379  0.1+  0.0
091213 H06  0.3+  0.4+    091223 379  0.2+  0.2-    100108 379  0.2-  0.1+
091213 H06  0.4+  0.2+    091223 379  0.1+  0.4+    100108 379  0.5-  0.1-
091213 H06  0.0   0.5+    091223 379  0.3-  0.2-    100109 I20  0.1+  0.2-
091213 900  0.1+  0.2+    091223 379  0.3+  0.3-    100109 I20  0.3+  0.2-
091213 900  0.1+  0.1+    091223 379  0.3+  0.1-    100109 I20  0.4+  0.0
091213 J16  0.2+  0.1+    091223 379  0.3+  0.4-    100109 379  0.0   0.0
091213 J16  0.3+  0.1+    091223 379  0.3-  0.3-    100109 379  0.2-  0.4+
091214 379  0.1+  0.2+    091223 379  0.0   0.0     100109 379  0.3-  0.1+
091214 379  0.0   0.2+    091223 379  0.0   0.1+    100109 379  0.6-  0.3+
091214 379  0.2+  0.5+    091223 379  0.5-  0.1+    100109 379  0.6-  0.0
091214 379  0.0   0.1+    091224 379  0.1+  0.1-    100110 H26  0.4-  0.4-
091214 379  0.1-  0.2+    091224 379  0.1+  0.2+    100110 H26  0.0   0.4-
091214 379  0.4+  0.2+    091224 379  0.0   0.1-    100110 H26  0.1-  0.2-
091214 379  0.0   0.3+    091224 379  0.1-  0.0     100110 H26  0.2-  0.3+
091214 379  0.2-  0.0     091224 379  0.3+  0.2+    100110 H26  0.1-  0.1+
091214 379  0.3-  0.0     091226 379  0.2+  0.2+    100110 H26  0.2-  0.1+
091214 379  0.1+  0.3+    091226 379  0.2-  0.1-    100110 H26  0.4-  0.1-
091214 379  0.2-  0.4+    091226 379  0.3-  0.3+    100110 H26  0.2-  0.2-
091214 379  0.1+  0.6+    091226 379  0.2+  0.5+    100110 H26  0.9-  0.5-
091215 204  0.2-  0.7-    091226 379  0.1+  0.3+    100113 H21  0.0   0.1+
091215 204  0.4-  0.7-    091226 379  0.3-  0.3+    100113 H21  0.1-  0.0
091215 204  0.3-  0.8-    091226 379  0.1-  0.1-    100113 H21  0.1-  0.0
091215 204  0.3-  0.8-    091226 379  0.1+  0.1-    100113 H21  0.0   0.0
091215 204  0.3-  0.7-    091227 B33  0.2+  0.3+    100113 H21  0.1-  0.1-
091216 H45  0.2+  0.0     091227 B33  0.2+  0.4-    100114 H21  0.1+  0.1+
091216 H45  0.1+  0.1-    091227 B33  0.3+  0.3-    100114 H21  0.0   0.0
091216 H45  0.3+  0.1-    091227 A53  0.2+  0.1-    100114 H21  0.0   0.1+
091216 H45  0.1+  0.3-    091227 A53  0.2+  0.1+    100114 H21  0.1-  0.0
091216 H45  0.2+  0.2-    091227 560  0.0   0.1-    100124 448  0.3+  0.1+
091216 H45  0.3+  0.0     091227 560  0.1+  0.1-    100124 448  0.4-  0.2+
091216 H45  0.2+  0.2-    091227 560  0.1+  0.0     100124 448  0.5-  0.7+
091216 H21  0.1-  0.3+    091227 560  0.2-  0.6-    100201 H21  0.0   0.0
091216 H21  0.0   0.3+    091227 A53  0.3+  0.0     100201 H21  0.1+  0.0
091216 H21  0.0   0.3+    091227 A53  0.1+  0.0     100201 H21  0.0   0.0
091216 H21  0.1+  0.3+    091227 A53  0.0   0.2-    100201 H21  0.1-  0.1-
091216 H21  0.1-  0.1+    091229 H21  0.1+  0.0     100201 H21  0.2-  0.2-
091216 H21  0.0   0.3+    091229 H21  0.1-  0.0     100207 H21  0.0   0.1-
091216 379  0.4-  0.0     091229 H21  0.1-  0.2+    100207 H21  0.4-  1.1-
091216 379  0.8-  0.0     091229 H21  0.0   0.1+    100224 448  0.5-  0.4+
091216 379  0.5-  0.1+    091229 H21  0.1+  0.2+    100224 448  1.9+  0.7-
091216 379  0.5-  0.1-    100103 H21  0.3+  0.2-    100224 448  0.8+  0.9-
091216 379  0.3-  0.1+    100103 H21  0.3+  0.2+    100305 H21  1.5-  0.1+
091216 379  0.4-  0.2+    100103 H21  0.1-  0.1-    100305 H21  0.0   1.0-
091216 379  0.4-  0.2+    100103 H21  0.4+  0.1+
091217 716  0.5+  0.4+    100103 H21  0.1+  0.5+

Ephemeris:
2009 XR2                 a,e,i = 1.49, 0.29, 27                  q = 1.0602
Date    TT    R. A. (2000) Decl.     Delta      r     Elong.  Phase     V
2010 03 05    06 17.26   -15 23.2    0.794    1.434   106.4    41.6    20.9
2010 03 15    06 32.83   -14 37.4    0.896    1.476   102.5    41.1    21.2
2010 03 25    06 49.88   -13 50.2    0.999    1.516    98.8    40.5    21.5
2010 04 04    07 08.13   -13 07.1    1.103    1.556    95.3    39.8    21.7
2010 04 14    07 27.33   -12 31.4    1.207    1.594    91.8    39.0    22.0

Timothy B. Spahr             (C) Copyright 2010 MPC           M.P.E.C. 2010-E35

Read MPEC 2010-E34 Read MPEC 2010-E36


MPEC number:

Enter an MPEC number in one of the following forms:

  • 1997-B01 (the full form)
  • J97B01 (the packed version of the full form)
  • B01 (the abbreviated form)

Valid HTML 4.01!